Flag for Germany Weather past 2 weeks in Germering, Bavaria, Germany

Now
36 °F

Chilly.


Feels Like: 30 °F
Forecast: 34 / 44 °F
Wind: 7 mph from Southwest

Location: Landsberg

Current Time: Dec 21, 2014 at 9:34:37 PM

Latest Report: Dec 21, 2014 at 8:20 PM


Visibility: N/A

Pressure: 30.45 "Hg

Humidity: 81%

Dew point: 30 °F

Location of GermeringLocation

Historic Weather in Germering — Graph

°F

Germering temperature yesterday

Maximum temperature yesterday: 46 °F (at 12:20 AM)
Minimum temperature yesterday: 36 °F (at 10:20 PM)
Average temperature yesterday: 40 °F

Past Weeks' High & Low Weather Summary

 TemperatureHumidityPressure
High54 °F (Dec 19, 1:20 PM)100% (Dec 6, 8:20 PM)30.48 "Hg (Dec 6, 8:20 PM)
Low27 °F (Dec 10, 6:20 AM)49% (Dec 12, 11:20 PM)29.77 "Hg (Dec 12, 9:20 PM)
Average40 °F82%30.08 "Hg
* Reported Dec 6 8:20 PM — Dec 21 8:20 PM, Germering, Weather by CustomWeather, © 2014

Note: Actual official high and low records may vary slightly from our data, if they occured in-between our weather recording intervals... More about our weather records

Advertising

Germering weather history for previous 24 hours

 ConditionsComfort  
Time TempWeatherWind HumidityBarometerVisibility
8:20 PM
Dec 21
36 °FChilly.7 mph81%30.45 "HgN/A
7:20 PM36 °FChilly.8 mph81%30.42 "HgN/A
6:20 PM36 °FChilly.8 mph81%30.45 "HgN/A
5:20 PM37 °FChilly.10 mph75%30.45 "HgN/A
4:20 PM39 °FChilly.10 mph65%30.45 "HgN/A
3:20 PM39 °FChilly.15 mph65%30.45 "HgN/A
2:20 PM39 °FChilly.17 mph65%30.45 "HgN/A
1:20 PM41 °FQuite cool.15 mph66%30.45 "HgN/A
12:20 PM39 °FChilly.17 mph70%30.48 "HgN/A
11:20 AM39 °FChilly.13 mph75%30.48 "HgN/A
10:20 AM37 °FChilly.13 mph81%30.48 "HgN/A
9:20 AM36 °FChilly.12 mph87%30.48 "HgN/A
8:20 AM36 °FChilly.12 mph87%30.48 "HgN/A
7:20 AM36 °FChilly.10 mph87%30.48 "HgN/A
6:20 AM36 °FChilly.12 mph87%30.45 "HgN/A
5:20 AM36 °FChilly.14 mph87%30.45 "HgN/A
4:20 AM37 °FChilly.20 mph81%30.42 "HgN/A
3:20 AM37 °FChilly.20 mph81%30.39 "HgN/A
2:20 AM37 °FChilly.24 mph81%30.36 "HgN/A
1:20 AM37 °FChilly.22 mph81%30.36 "HgN/A
12:20 AM37 °FChilly.24 mph81%30.33 "HgN/A
11:20 PM
Dec 20
36 °FChilly.18 mph87%30.33 "HgN/A
10:20 PM36 °FChilly.22 mph87%30.30 "Hg1 mi
9:20 PM39 °FChilly.24 mph65%30.27 "Hg4 mi
Weather by CustomWeather, © 2014

See weather overviewHow to use our weather pages